sat.trackr.live / text

‹ back to catalog

XINGYUN-2 01

NORAD 45602 · 2020-028A

PAYLOAD ACTIVE UNKNOWN

§ Identity

Operator
Country
PRC
Launch date
2020-05-12
Launch site
JSC
Launch vehicle
Mass (kg)
RCS (m²)

External: N2YO · Heavens-Above · Gunter

§ Orbital elements

Epoch: 2026-09-13T05:28:59.510784Z

Period
95.23 min
Inclination
97.4943°
Eccentricity
0.0007210
Mean motion
15.12127999 rev/d
Perigee alt
524.7 km
Apogee alt
534.7 km
Semi-major
6,907.8 km
B*
8.8799e-5
RAAN
246.9377°
Arg perigee
260.6299°
Mean anomaly
99.4116°
Rev number
34,814

§ Raw data

XINGYUN-2 011 45602U 20028A   26256.22846656  .00001466  00000+0  88799-4 0  99902 45602  97.4943 246.9377 0007210 260.6299  99.4116 15.12127999348143

JSON: /api/v1/satellites/45602 · /tle

For live sub-satellite position, see the globe view (requires WebGL).

§ Visibility from observer

Set your observer location to see the next 7 days of passes ≥ 10°. The values pass through the URL so the page stays shareable.

No JS? Fill the form by hand. The geolocation button needs JavaScript.

§ Radio — SatNOGS DB

ModeDescriptionDownlinkUplink
BPSK Mode L - IOT 1.522 GHz
FM Mode U center 272.500 MHz

2 transmitters · refreshed weekly from db.satnogs.org